This is the latest recevied weather packets stored in our database for station/object KA4YMY. If no packets are shown the sender has not sent any weather packets the latest 1 day(s).
| Time | Temp. | Humidity | Pressure | Rain* | Wind** | Luminosity | Snow |
|---|---|---|---|---|---|---|---|
| 1778040917 | 19.44° C | 65% | 1014 hPa | 0 mm | 0.89 m/s, 135° | - | - |
| 1778040317 | 19.44° C | 64% | 1013.9 hPa | 0 mm | 1.34 m/s, 158° | - | - |
| 1778039716 | 19.44° C | 62% | 1013.8 hPa | 0 mm | 1.34 m/s, 180° | - | - |
| 1778039116 | 19.44° C | 62% | 1013.9 hPa | 0 mm | 1.34 m/s, 158° | - | - |
| 1778038516 | 19.44° C | 61% | 1013.8 hPa | 0 mm | 1.34 m/s, 158° | - | - |
| 1778037916 | 19.44° C | 59% | 1013.7 hPa | 0 mm | 0.89 m/s, 180° | - | - |
| 1778037316 | 19.44° C | 57% | 1013.6 hPa | 0 mm | 0.45 m/s, 203° | - | - |
| 1778036716 | 20° C | 57% | 1013.5 hPa | 0 mm | 0.45 m/s, 180° | - | - |
| 1778036116 | 20° C | 56% | 1013.4 hPa | 0 mm | 0.45 m/s, 180° | - | - |
| 1778035516 | 20° C | 55% | 1013.5 hPa | 0 mm | 0.89 m/s, 180° | - | - |
| 1778034916 | 20° C | 55% | 1013.5 hPa | 0 mm | 0.45 m/s, 180° | - | - |
| 1778034316 | 20.56° C | 55% | 1013.6 hPa | 0 mm | 0.45 m/s, 180° | - | - |
| 1778033716 | 20.56° C | 55% | 1013.6 hPa | 0 mm | 0.45 m/s, 180° | - | - |
| 1778031316 | 21.11° C | 53% | 1013.6 hPa | 0 mm | 0.45 m/s, 158° | - | - |
| 1778030128 | 21.11° C | 51% | 1013.3 hPa | 0 mm | 0.45 m/s, 158° | - | - |
| 1778025916 | 23.89° C | 44% | 1012.8 hPa | 0 mm | 0.45 m/s, 158° | - | - |
| 1778025317 | 23.89° C | 43% | 1012.7 hPa | 0 mm | 0.45 m/s, 180° | - | - |
| 1778024716 | 24.44° C | 42% | 1012.5 hPa | 0 mm | 0.89 m/s, 158° | - | - |
| 1778024117 | 24.44° C | 42% | 1012.5 hPa | 0 mm | 0.45 m/s, 158° | - | - |
| 1778023517 | 24.44° C | 41% | 1012.6 hPa | 0 mm | 0.45 m/s, 158° | - | - |
| 1778022916 | 25° C | 41% | 1012.6 hPa | 0 mm | 0.89 m/s, 158° | - | - |
| 1778022317 | 25° C | 41% | 1012.7 hPa | 0 mm | 1.34 m/s, 158° | - | - |
| 1778021716 | 25° C | 41% | 1012.7 hPa | 0 mm | 0.89 m/s, 158° | - | - |
| 1778021117 | 25° C | 42% | 1012.7 hPa | 0 mm | 0.45 m/s, 158° | - | - |
| 1778020517 | 25° C | 40% | 1012.7 hPa | 0 mm | 1.34 m/s, 158° | - | - |
* Rain latest hour (hover to see other rain measurements)
** Current wind speed in m/s (hover to see current wind gust speed)